Regional Weather Roundup
Issued by NWS

Home | Current Version | Previous Version | Text Only | Print | Product List | Glossary Off
Versions: 1 2 3 4 5 6 7 8 9 10 11 12 13 14 15 16 17 18 19 20 21 22 23 24 25 26 27 28 29 30 31 32 33 34 35 36 37 38 39 40 41 42 43 44 45 46 47 48 49 50

000
ASUS43 KFSD 071102
RWRSD

WEATHER ROUNDUP FOR SOUTH DAKOTA
NATIONAL WEATHER SERVICE SIOUX FALLS SD
600 AM CDT TUE JUL 07 2015

NOTE: "FAIR" INDICATES FEW OR NO CLOUDS BELOW 12,000 FEET WITH NO
SIGNIFICANT WEATHER AND/OR OBSTRUCTIONS TO VISIBILITY.


SDZ001>005-009-010-012>017-071200-
NORTHWEST AND NORTH CENTRAL SOUTH DAKOTA

CITY           SKY/WX    TMP DP  RH WIND       PRES   REMARKS
BUFFALO          N/A     55  50  83 E6        30.10F
FAITH            N/A     55  51  86 SE13      30.16F
MOBRIDGE       CLEAR     56  52  86 E8        30.17S
$$

SDZ012>016-024>037-041>051-057-063-072>074-071200-
SOUTHWEST AND SOUTH CENTRAL SOUTH DAKOTA

CITY           SKY/WX    TMP DP  RH WIND       PRES   REMARKS
RAPID CTY ARPT FOG       54  53  97 S3        30.16F VSB 3/4
PIERRE         CLEAR     52  50  93 E7        30.17S FOG
CUSTER         MOCLDY    52  49  89 CALM      30.25F FOG
ELLSWORTH AFB  CLEAR     57  57  99 S5        30.16S
PHILIP         MOCLDY    56  55  97 E3        30.17R FOG
PINE RIDGE     MOCLDY    58  52  80 S3        30.18F
WINNER         FAIR      57  52  83 S6        30.18S HAZE
$$

SDZ004>011-016>023-039-040-071200-
NORTHEAST SOUTH DAKOTA

CITY           SKY/WX    TMP DP  RH WIND       PRES   REMARKS
ABERDEEN       CLEAR     49  47  93 CALM      30.21R
WATERTOWN      CLEAR     46  43  89 CALM      30.19R
BROOKINGS      CLEAR     48  43  81 CALM      30.21R
SISSETON         N/A     46  43  89 NW3       30.19R
$$

SDZ017-020-022-023-036>040-048>070-071200-
SOUTHEAST SOUTH DAKOTA

CITY           SKY/WX    TMP DP  RH WIND       PRES   REMARKS
SIOUX FALLS    PTCLDY    51  48  89 N7        30.17S
HURON          CLEAR     51  51 100 N3        30.19R FOG
MITCHELL       CLEAR     53  52  96 NE3       30.19R FOG
YANKTON        CLEAR     54  48  82 NW5       30.16S
$$

ABBREVIATIONS USED IN REMARKS
   TC - TEMPERATURE IN CELSIUS
  WCI - WIND CHILL INDEX
   HX - HEAT INDEX
  VSB - VISIBILITY



USA.gov is the U.S. government's official web portal to all federal, state and local government web resources and services.